Flag for Pakistan Weather past 2 weeks in Lahore, Pakistan

Now
72 °F

Scattered clouds.


Feels Like: 75 °F
Forecast: 73 / 98 °F
Wind: 10 mph from Northeast

Location: Lahore Airport

Current Time: Apr 20, 2015 at 6:51:40 AM

Latest Report: Apr 20, 2015 at 6:30 AM


Visibility: 2 mi

Pressure: 29.71 "Hg

Humidity: 69%

Dew point: 61 °F

Location of LahoreLocation

Historic Weather in Lahore — Graph

°F

Lahore temperature yesterday

Maximum temperature yesterday: 100 °F (at 1:55 PM)
Minimum temperature yesterday: 75 °F (at 4:55 AM)
Average temperature yesterday: 87 °F

Past Weeks' High & Low Weather Summary

 TemperatureHumidityPressure
High100 °F (Apr 19, 1:55 PM)88% (Apr 6, 5:00 AM)30.12 "Hg (Apr 6, 5:00 AM)
Low59 °F (Apr 8, 4:59 AM)21% (Apr 19, 2:25 PM)29.56 "Hg (Apr 19, 5:55 PM)
Average79 °F55%29.86 "Hg
* Reported Apr 5 4:25 AM — Apr 20 4:59 AM, Lahore, Weather by CustomWeather, © 2015

Note: Actual official high and low records may vary slightly from our data, if they occured in-between our weather recording intervals... More about our weather records

Advertising

Lahore weather history for previous 24 hours

 ConditionsComfort  
Time TempWeatherWind HumidityBarometerVisibility
4:59 AM
Mon, Apr 20
73 °FPassing clouds.14 mph65%29.71 "Hg2 mi
4:30 AM73 °FPartly cloudy.13 mph65%29.68 "Hg2 mi
4:00 AM73 °FPartly cloudy.15 mph65%29.65 "Hg2 mi
3:25 AM75 °FPartly cloudy.14 mph61%29.68 "Hg2 mi
2:55 AM75 °FPartly cloudy.12 mph61%29.65 "Hg2 mi
2:25 AM77 °FPartly cloudy.10 mph54%29.65 "Hg2 mi
1:55 AM77 °FPartly cloudy.10 mph54%29.65 "Hg2 mi
1:25 AM77 °FThundershowers. Partly cloudy.12 mph51%29.65 "Hg2 mi
12:55 AM79 °FThundershowers. Partly cloudy.15 mph48%29.65 "Hg2 mi
12:25 AM82 °FThundershowers. Partly cloudy.15 mph45%29.65 "Hg2 mi
11:55 PM
Sun, Apr 19
82 °FPartly cloudy.18 mph45%29.68 "Hg2 mi
11:25 PM82 °FPassing clouds.13 mph45%29.65 "Hg2 mi
11:01 PM82 °FPassing clouds.21 mph45%29.65 "Hg2 mi
10:25 PM84 °FPassing clouds.14 mph40%29.59 "Hg2 mi
9:55 PM84 °FPassing clouds.13 mph40%29.59 "Hg2 mi
9:33 PM84 °FPassing clouds.10 mph40%29.59 "Hg2 mi
8:55 PM84 °FPassing clouds.9 mph40%29.59 "Hg2 mi
8:25 PM86 °FPassing clouds.10 mph40%29.59 "Hg2 mi
7:55 PM86 °FPassing clouds.9 mph40%29.56 "Hg2 mi
7:25 PM90 °FPassing clouds.8 mph33%29.56 "Hg2 mi
6:55 PM90 °FPassing clouds.9 mph33%29.56 "Hg2 mi
6:25 PM91 °FScattered clouds.12 mph30%29.56 "Hg3 mi
5:55 PM93 °FScattered clouds.13 mph28%29.56 "Hg3 mi
5:25 PM95 °FScattered clouds.10 mph25%29.59 "Hg3 mi
4:55 PM95 °FScattered clouds.10 mph25%29.59 "Hg3 mi
4:25 PM97 °FScattered clouds.10 mph25%29.59 "Hg3 mi
3:55 PM97 °FScattered clouds.12 mph25%29.59 "Hg3 mi
3:25 PM97 °FScattered clouds.12 mph25%29.59 "Hg3 mi
2:55 PM97 °FThunderstorms. Broken clouds.13 mph23%29.62 "Hg2 mi
2:25 PM100 °FPartly sunny.7 mph21%29.65 "Hg3 mi
1:55 PM100 °FBroken clouds.7 mph22%29.65 "Hg3 mi
1:25 PM99 °FScattered clouds.7 mph25%29.65 "Hg4 mi
12:55 PM99 °FScattered clouds.7 mph25%29.68 "Hg5 mi
12:25 PM97 °FScattered clouds.5 mph28%29.68 "Hg4 mi
11:55 AM95 °FScattered clouds.5 mph30%29.71 "Hg4 mi
11:25 AM93 °FScattered clouds.5 mph34%29.71 "Hg4 mi
10:55 AM91 °FScattered clouds.No wind38%29.74 "Hg4 mi
10:25 AM90 °FScattered clouds.No wind41%29.74 "Hg4 mi
9:55 AM86 °FScattered clouds.7 mph49%29.74 "Hg3 mi
9:25 AM86 °FScattered clouds.7 mph49%29.71 "Hg3 mi
8:55 AM84 °FPassing clouds.6 mph48%29.71 "Hg3 mi
8:25 AM82 °FPassing clouds.5 mph51%29.71 "Hg3 mi
7:55 AM79 °FPassing clouds.No wind58%29.71 "Hg3 mi
7:25 AM79 °FScattered clouds.7 mph61%29.71 "Hg2 mi
6:55 AM77 °FScattered clouds.7 mph65%29.71 "Hg2 mi
6:25 AM75 °FScattered clouds.6 mph69%29.68 "Hg2 mi
Weather by CustomWeather, © 2015

See weather overviewHow to use our weather pages